Weather in Bolshoy Zerentuy

Russia / Zabaykalsky Krai     51°21′52″N   119°13′11″E
temp.,
°C
wind,
m/s
gust,
m/s
humid.,
%
clouds,
%
prec.,
mm/h
press.,
hPa
HPBL,
m
9 march, tue
tue900:00−9nw44810 0.0 101578
03:00−11wnw513766 0.0 1020297
06:00−15wnw44770 0.0 102374
09:00−16wnw23810 0.0 102837
12:00−8w23730 0.0 1028278
15:00−6ssw34670 0.0 1027662
18:00−10s33870 0.0 102643
21:00−15s23850 0.0 102720
10 march, wed
wed1000:00−15s338491 0.0 102542
03:00−14s338695 0.0 102368
06:00−13ssw2288100 0.0 102192
09:00−14sw228883 0.0 102233
12:00−4wnw39800 0.0 1021660
15:00−2nw610720 0.0 10221260
18:00−5nw35790 0.0 102483
21:00−11nw22830 0.0 102921
11 march, thu
thu1100:00−14wsw22810 0.0 103121
03:00−16w11810 0.0 103120
06:00−16ssw12800 0.0 103120
09:00−14ssw22881 0.0 103150
12:00−9s34880 0.0 1029263
15:00−6s34895 0.0 1027311
18:00−8sse229535 0.0 102731
21:00−12ssw119521 0.0 103021
12 march, fri
fri1200:00−13ssw12930 0.0 103121
03:00−14ssw22940 0.0 103120
06:00−15s22940 0.0 103120
09:00−13s23904 0.0 103077
12:00−7s45850 0.0 1027240
15:00−5s510850 0.0 1024372
18:00−6s36910 0.0 1022170
21:00−9s44870 0.0 102347
13 march, sat
sat1300:00−11s348168 0.0 102236
03:00−12s338384 0.0 102045
06:00−14ssw228754 0.0 101921
09:00−11s229127 0.0 101855
12:00−6s349229 0.0 1015280
15:00−4s359464 0.0 1012401
18:00−3s369399 0.0 1010439
21:00−8s229691 0.0 101021